Weather History for Danville, IL

Change the Weather History Date:

Thursday, February 28, 2013

  Actual Average (KLAF) Record (KLAF)
Temperature  
Mean Temperature 34 °F 35 °F  
Max Temperature 36 °F 43 °F 62 °F (1972)
Min Temperature 31 °F 26 °F 0 °F (1993)
Degree Days  
Heating Degree Days 31 30  
Month to date heating degree days 964  
Since 1 July heating degree days 4334  
Cooling Degree Days 0 0  
Month to date cooling degree days 0  
Year to date cooling degree days 0  
Moisture  
Dew Point 31 °F    
Average Humidity 91    
Maximum Humidity 100    
Minimum Humidity 83    
Precipitation  
Precipitation 0.00 in 0.08 in 0.62 in (1955)
Month to date precipitation 1.76  
Year to date precipitation 3.62  
Sea Level Pressure  
Sea Level Pressure 29.87 in    
Wind  
Wind Speed 11 mph (NW)    
Max Wind Speed 16 mph    
Max Gust Speed 22 mph    
Visibility 9 miles    
Events Rain , Snow    
T = Trace of Precipitation, MM = Missing Value Source: NWS Daily Summary

Daily Weather History Graph

Daily Weather History Graph

Search for Another Location

Airport:

Trip Planner

Search our weather history database for the weather conditions in past years. The results will help you decide how hot, cold, wet, or windy it might be!

Date:

Astronomy

Feb. 28, 2013 Rise Set
Actual Time 6:24 AM CST 5:41 PM CST
Civil Twilight 5:57 AM CST 6:08 PM CST
Nautical Twilight 5:26 AM CST 6:40 PM CST
Astronomical Twilight 4:54 AM CST 7:11 PM CST
Moon 9:08 PM CST (2/28) 7:34 AM CST (2/28)
Length of Visible Light 12h 10m
Length of Day
11h 16m
Waning Gibbous, 90% of the Moon is Illuminated
Feb 28
Waning Gibbous
Mar 4
Last Quarter
Mar 11
New
Mar 19
First Quarter
Mar 27
Full

Hourly Weather History & Observations

Time (CST) Temp. Windchill Dew Point Humidity Pressure Visibility Wind Dir Wind Speed Gust Speed Precip Events Conditions
12:15 AM 32.0 °F 23.6 °F 31.3 °F 97% 29.70 in 2.5 mi WNW 10.4 mph - N/A Snow Light Snow
12:35 AM 32.0 °F 24.2 °F 31.3 °F 97% 29.70 in 5.0 mi WNW 9.2 mph - N/A Snow Light Snow
12:55 AM 32.0 °F 24.2 °F 31.1 °F 96% 29.70 in 5.0 mi WNW 9.2 mph - N/A Snow Light Snow
1:15 AM 32.2 °F 23.8 °F 31.1 °F 96% 29.70 in 7.0 mi WNW 10.4 mph - N/A Snow Light Snow
1:35 AM 32.2 °F 23.2 °F 31.1 °F 96% 29.70 in 5.0 mi WNW 11.5 mph 17.3 mph N/A Snow Light Snow
1:55 AM 32.2 °F 23.2 °F 31.1 °F 96% 29.70 in 5.0 mi WNW 11.5 mph - N/A   Overcast
2:15 AM 32.2 °F 23.2 °F 31.1 °F 96% 29.71 in 7.0 mi WNW 11.5 mph - N/A   Overcast
2:35 AM 32.4 °F 23.5 °F 30.9 °F 94% 29.71 in 10.0 mi WNW 11.5 mph - N/A   Overcast
2:55 AM 32.4 °F 24.0 °F 30.9 °F 94% 29.71 in 10.0 mi WNW 10.4 mph - N/A   Overcast
3:15 AM 32.4 °F 23.0 °F 31.1 °F 95% 29.72 in 7.0 mi WNW 12.7 mph - N/A   Overcast
3:35 AM 32.5 °F 23.2 °F 31.1 °F 94% 29.72 in 10.0 mi WNW 12.7 mph 19.6 mph N/A   Overcast
3:55 AM 32.5 °F 23.7 °F 31.1 °F 94% 29.73 in 10.0 mi WNW 11.5 mph - N/A   Overcast
4:15 AM 32.5 °F 22.7 °F 31.1 °F 94% 29.73 in 10.0 mi WNW 13.8 mph - N/A   Overcast
4:35 AM 32.0 °F 22.5 °F 32.0 °F 100% 29.74 in 10.0 mi NW 12.7 mph - N/A   Overcast
4:55 AM 32.5 °F 23.7 °F 31.1 °F 94% 29.75 in 10.0 mi NW 11.5 mph 18.4 mph N/A   Overcast
5:15 AM 32.5 °F 23.2 °F 31.1 °F 94% 29.75 in 10.0 mi NW 12.7 mph - N/A   Overcast
5:35 AM 32.7 °F 23.0 °F 31.1 °F 94% 29.76 in 10.0 mi NW 13.8 mph 19.6 mph N/A   Overcast
5:55 AM 32.7 °F 23.4 °F 30.9 °F 93% 29.77 in 10.0 mi NW 12.7 mph 19.6 mph N/A   Overcast
6:15 AM 32.7 °F 23.0 °F 31.1 °F 94% 29.78 in 10.0 mi NW 13.8 mph - N/A   Overcast
6:35 AM 32.5 °F 23.2 °F 30.9 °F 94% 29.78 in 10.0 mi NW 12.7 mph - N/A   Overcast
6:55 AM 32.5 °F 23.2 °F 31.1 °F 94% 29.79 in 10.0 mi NW 12.7 mph - N/A   Overcast
7:15 AM 32.5 °F 23.2 °F 31.1 °F 94% 29.80 in 7.0 mi NW 12.7 mph - N/A   Overcast
7:35 AM 32.9 °F 23.7 °F 31.1 °F 93% 29.81 in 7.0 mi NW 12.7 mph 18.4 mph N/A Snow Light Snow
7:55 AM 32.9 °F 24.7 °F 31.1 °F 93% 29.82 in 4.0 mi NW 10.4 mph - N/A Snow Light Snow
8:15 AM 32.9 °F 23.7 °F 31.5 °F 94% 29.83 in 5.0 mi NW 12.7 mph - N/A Snow Light Snow
8:35 AM 33.1 °F 24.4 °F 31.3 °F 93% 29.83 in 7.0 mi NW 11.5 mph 18.4 mph N/A Snow Light Snow
8:55 AM 33.3 °F 22.8 °F 31.5 °F 93% 29.84 in 10.0 mi NW 16.1 mph 20.7 mph N/A   Overcast
9:15 AM 33.4 °F 24.8 °F 31.6 °F 93% 29.85 in 10.0 mi NW 11.5 mph 19.6 mph N/A   Overcast
9:35 AM 33.8 °F 24.8 °F 31.8 °F 92% 29.85 in 10.0 mi NW 12.7 mph - N/A   Overcast
9:55 AM 34.2 °F 24.8 °F 32.0 °F 92% 29.86 in 10.0 mi NW 13.8 mph 17.3 mph N/A   Overcast
10:15 AM 34.2 °F 25.2 °F 32.0 °F 92% 29.86 in 10.0 mi NW 12.7 mph 17.3 mph N/A   Overcast
10:35 AM 35.2 °F 25.8 °F 32.2 °F 89% 29.86 in 10.0 mi NW 15.0 mph - N/A   Overcast
10:55 AM 36.0 °F 27.5 °F 32.9 °F 89% 29.87 in 10.0 mi NW 12.7 mph - N/A   Overcast
11:15 AM 36.0 °F 28.5 °F 32.5 °F 87% 29.88 in 10.0 mi NW 10.4 mph - N/A   Overcast
11:35 AM 36.9 °F 30.1 °F 33.1 °F 86% 29.88 in 10.0 mi NW 9.2 mph 12.7 mph N/A   Overcast
11:55 AM 36.5 °F 27.0 °F 32.0 °F 84% 29.88 in 10.0 mi NNW 16.1 mph 19.6 mph N/A   Overcast
12:15 PM 36.7 °F 28.4 °F 32.2 °F 84% 29.88 in 10.0 mi NNW 12.7 mph - N/A   Overcast
12:35 PM 36.5 °F 27.8 °F 32.5 °F 86% 29.88 in 10.0 mi NNW 13.8 mph - N/A   Overcast
12:55 PM 36.7 °F 28.4 °F 32.5 °F 85% 29.89 in 10.0 mi NNW 12.7 mph - N/A   Overcast
1:15 PM 36.5 °F 27.4 °F 32.2 °F 84% 29.89 in 10.0 mi NNW 15.0 mph - N/A   Overcast
1:35 PM 36.9 °F 28.7 °F 32.4 °F 84% 29.88 in 10.0 mi NNW 12.7 mph 19.6 mph N/A   Overcast
1:55 PM 36.9 °F 28.2 °F 32.0 °F 83% 29.89 in 10.0 mi NNW 13.8 mph 21.9 mph N/A   Overcast
2:15 PM 36.7 °F 28.0 °F 32.2 °F 84% 29.90 in 10.0 mi NW 13.8 mph - N/A   Overcast
2:35 PM 36.5 °F 27.8 °F 32.0 °F 84% 29.90 in 10.0 mi NNW 13.8 mph 21.9 mph N/A   Overcast
2:55 PM 36.0 °F 27.5 °F 32.0 °F 86% 29.92 in 10.0 mi NNW 12.7 mph 21.9 mph N/A   Overcast
3:35 PM 35.4 °F 26.4 °F 32.0 °F 87% 29.93 in 10.0 mi NW 13.8 mph 18.4 mph N/A   Overcast
3:55 PM 35.1 °F 26.9 °F 32.0 °F 89% 29.94 in 7.0 mi NW 11.5 mph - N/A   Overcast
4:15 PM 34.9 °F 27.7 °F 32.0 °F 89% 29.94 in 10.0 mi NW 9.2 mph - N/A   Overcast
4:35 PM 34.9 °F 27.1 °F 32.0 °F 89% 29.95 in 10.0 mi NNW 10.4 mph - N/A   Overcast
4:55 PM 34.7 °F 26.9 °F 32.0 °F 90% 29.96 in 10.0 mi NW 10.4 mph - N/A   Overcast
5:15 PM 34.5 °F 27.3 °F 32.0 °F 90% 29.97 in 10.0 mi NW 9.2 mph - N/A   Overcast
5:35 PM 34.3 °F 27.7 °F 31.8 °F 90% 29.97 in 10.0 mi NNW 8.1 mph - N/A   Overcast
5:55 PM 33.8 °F 27.0 °F 32.0 °F 93% 29.98 in 5.0 mi NNW 8.1 mph - N/A Rain Light Rain
6:15 PM 33.8 °F 27.0 °F 32.0 °F 93% 29.98 in 7.0 mi NNW 8.1 mph - N/A   Overcast
6:35 PM 33.4 °F 25.9 °F 31.6 °F 93% 29.99 in 7.0 mi NNW 9.2 mph - N/A   Overcast
6:55 PM 33.1 °F 24.9 °F 31.8 °F 95% 29.99 in 10.0 mi North 10.4 mph - N/A   Overcast
7:15 PM 32.9 °F 24.1 °F 31.1 °F 93% 29.99 in 10.0 mi North 11.5 mph - N/A   Overcast
7:35 PM 32.4 °F 23.5 °F 30.6 °F 93% 29.99 in 7.0 mi North 11.5 mph - N/A   Overcast
7:55 PM 32.0 °F 24.8 °F 30.9 °F 96% 30.00 in 5.0 mi North 8.1 mph - N/A   Overcast
8:15 PM 32.0 °F 24.2 °F 30.9 °F 96% 30.00 in 10.0 mi North 9.2 mph - N/A   Overcast
8:35 PM 32.0 °F 24.8 °F 30.4 °F 94% 30.00 in 10.0 mi North 8.1 mph - N/A   Overcast
8:55 PM 32.0 °F 24.8 °F 30.2 °F 93% 30.00 in 10.0 mi North 8.1 mph - N/A   Overcast
9:15 PM 32.0 °F 25.6 °F 29.3 °F 90% 30.00 in 10.0 mi North 6.9 mph - N/A   Overcast
9:35 PM 32.0 °F 26.4 °F 29.5 °F 90% 30.00 in 10.0 mi North 5.8 mph - N/A   Overcast
9:55 PM 32.0 °F 24.8 °F 28.4 °F 87% 30.01 in 10.0 mi North 8.1 mph - N/A   Overcast
10:15 PM 32.0 °F 25.6 °F 28.4 °F 87% 30.01 in 10.0 mi North 6.9 mph - N/A   Overcast
10:35 PM 32.0 °F 24.2 °F 28.2 °F 86% 30.01 in 10.0 mi North 9.2 mph - N/A   Overcast
10:55 PM 32.0 °F 26.4 °F 28.2 °F 86% 30.01 in 10.0 mi North 5.8 mph - N/A   Overcast
11:15 PM 32.0 °F 24.2 °F 28.4 °F 87% 30.00 in 10.0 mi North 9.2 mph - N/A   Overcast
11:35 PM 32.0 °F 24.8 °F 28.0 °F 85% 30.00 in 10.0 mi North 8.1 mph - N/A   Overcast
11:55 PM 31.8 °F 23.3 °F 27.9 °F 85% 30.00 in 10.0 mi North 10.4 mph - N/A   Overcast